RH
29 27 24 22 20 17 16 14 13 12 11 11 11 10 10 10 10 9 10 9 9 9 8 8 8 8 9 9 10 12 13 13 14 14 15 15 16 16 17 18 18 19 19 20 20 21 21 21 22 23 23 23 24 24 24 24 24 24 24 25 25 25 26 26 26 25 24 22 23 26 27 28 27 26 26 26 26 25 25 25 25 25 24 24 24 24 24 24
34 32 29 27 25 23 21 18 16 15 13 12 12 11 11 11 10 10 10 9 10 9 9 9 9 9 8 9 9 9 10 11 12 13 14 14 15 15 15 16 16 17 17 18 19 19 19 20 20 21 21 22 22 22 23 23 23 24 24 24 24 25 25 25 24 23 24 24 25 26 27 27 26 26 26 26 25 25 26 25 25 25 25 24 24 24 24 24
42 39 37 34 32 29 27 25 23 20 18 17 15 14 13 12 12 11 11 10 10 10 10 10 9 9 9 9 9 8 9 9 10 11 11 12 13 13 14 14 15 16 16 16 17 17 18 18 18 19 20 20 20 21 21 21 22 22 22 23 24 24 23 23 23 24 24 25 26 25 26 26 25 25 26 25 25 25 25 24 24 24 24 24 24 24 24 24
52 50 47 45 42 39 36 34 31 29 26 24 22 21 19 18 16 15 14 13 13 12 12 11 11 10 10 10 9 9 9 9 9 9 9 10 10 11 11 12 12 13 14 14 15 15 16 16 17 17 17 18 18 19 19 20 20 20 21 21 22 22 22 22 23 23 24 24 24 24 25 24 24 24 25 24 24 24 24 23 24 24 23 24 24 23 23 23
62 61 59 57 54 51 49 46 43 40 37 34 32 30 27 25 24 22 21 20 18 17 16 15 15 14 13 12 11 11 10 10 10 9 9 9 9 9 9 9 10 10 11 11 12 12 13 14 14 15 16 16 17 17 17 18 18 19 19 20 20 20 20 21 22 22 23 22 22 23 23 22 22 23 23 23 23 22 23 22 22 23 23 23 23 22 22 22
70 69 68 65 62 60 58 56 54 51 47 44 41 39 37 34 32 30 28 27 25 24 23 21 20 19 18 17 16 15 14 13 12 11 11 10 10 9 9 9 9 9 9 9 10 10 10 11 11 12 12 13 14 15 15 15 16 17 17 17 18 18 19 19 20 21 21 21 21 21 22 22 22 22 22 21 22 21 21 21 22 23 22 22 22 21 22 21
75 74 72 69 67 64 62 61 59 57 54 51 48 45 42 39 37 35 33 31 30 28 27 25 24 23 22 21 20 19 18 17 16 15 14 13 12 11 11 10 10 10 9 9 9 9 9 9 10 9 10 11 11 12 12 13 14 14 15 16 16 17 17 18 19 20 19 20 20 20 21 21 21 21 20 21 21 20 21 22 21 22 21 21 22 21 21 21
79 77 76 73 71 69 67 65 62 60 58 55 53 50 46 43 40 38 36 34 33 32 30 30 29 28 28 27 26 25 23 22 20 19 18 17 16 15 14 13 13 12 12 12 11 11 11 10 10 10 10 10 11 12 12 13 13 13 14 14 15 16 16 17 19 18 18 19 18 20 20 20 20 20 20 21 20 20 22 22 21 21 21 22 22 21 21 21
84 83 81 78 75 72 70 70 68 65 61 58 56 55 52 49 45 42 40 39 38 37 36 36 35 35 35 34 33 31 29 28 27 25 23 22 21 19 18 17 17 16 15 15 14 14 14 14 14 13 13 13 14 14 14 14 14 14 15 15 17 18 17 18 19 18 18 19 18 19 20 19 19 19 20 21 20 20 22 21 21 21 21 22 22 21 21 22
86 86 85 82 78 73 71 70 70 69 65 62 59 59 58 56 53 48 44 43 43 42 41 42 42 41 41 40 37 36 35 34 33 31 29 27 26 24 22 21 20 19 19 18 18 18 18 18 17 17 17 17 17 17 18 18 17 19 20 19 20 20 18 20 21 20 20 20 20 20 20 20 20 21 22 22 20 21 24 22 21 23 21 22 23 23 23 23
83 83 81 79 76 72 69 68 68 68 68 66 64 63 62 61 58 55 50 47 46 47 46 47 47 46 45 43 41 40 39 38 38 37 35 34 31 29 26 25 23 22 22 21 21 21 22 22 21 21 20 21 22 22 22 21 22 24 23 22 24 24 22 24 24 23 24 23 22 23 22 22 23 25 25 22 21 24 26 23 23 25 25 26 26 28 28 26
85 84 81 79 78 75 73 72 71 70 69 69 69 68 66 64 62 60 57 52 50 50 50 51 51 50 48 45 44 45 44 44 44 43 43 41 38 36 33 30 28 27 27 26 26 26 26 26 25 25 25 26 24 24 27 26 26 27 27 27 27 27 26 28 28 26 27 24 25 28 26 26 27 29 29 23 24 31 29 26 29 32 32 32 33 35 34 32
84 84 83 82 80 79 78 75 73 71 69 67 65 65 65 65 65 63 62 60 56 52 53 55 56 55 51 49 50 50 50 50 50 49 49 49 48 45 41 39 36 34 33 32 32 32 31 31 30 30 31 29 28 32 33 29 30 30 31 31 30 32 34 32 30 29 30 28 32 35 31 32 35 35 32 25 33 42 37 34 38 40 41 39 40 43 41 38
78 77 76 76 75 74 72 70 68 66 64 61 60 59 59 62 65 65 65 65 63 58 55 56 60 60 56 55 54 54 56 58 56 54 54 55 57 57 54 50 46 42 40 39 39 39 39 38 36 37 37 35 37 42 38 34 36 35 36 37 35 37 39 34 31 36 39 38 42 44 41 42 43 42 37 33 47 53 46 46 46 46 49 46 46 48 44 44
74 72 71 70 69 69 67 66 64 62 61 59 58 57 57 58 61 64 66 67 68 66 60 57 60 63 63 61 60 60 63 65 64 62 61 59 63 71 73 70 66 61 55 50 46 45 45 44 44 46 46 45 47 48 43 41 42 39 41 44 40 42 45 37 38 53 51 43 50 51 50 55 54 47 40 44 58 61 56 54 52 52 53 50 52 55 48 45
73 70 69 67 67 66 65 65 63 62 61 60 59 57 57 56 57 60 64 68 70 69 65 60 58 60 62 61 65 70 69 70 72 74 74 69 73 80 84 88 90 88 84 78 69 62 58 53 52 51 51 52 52 53 50 49 50 48 47 48 46 45 47 40 47 72 62 45 61 69 65 71 70 50 40 65 87 82 66 57 57 57 58 63 60 61 56 45
70 68 67 65 64 63 63 63 62 62 61 60 59 58 57 56 56 56 58 63 67 69 67 63 60 57 58 60 67 69 71 77 78 82 85 83 85 87 89 95 99 99 100 99 94 91 87 81 74 65 62 61 57 58 58 56 56 53 48 51 56 55 59 57 57 76 74 59 72 86 87 88 84 55 38 80 118 106 79 66 75 74 73 88 76 67 72 57
68 68 67 66 66 65 65 65 65 65 65 64 62 60 59 58 57 56 55 57 61 67 69 67 63 59 60 63 65 67 74 79 80 86 93 94 96 96 96 100 103 103 102 101 101 101 101 100 97 90 84 78 72 73 71 67 67 67 70 79 84 81 84 80 60 63 85 93 89 90 102 102 92 67 43 76 117 115 97 83 89 96 96 105 89 76 91 85
71 72 73 73 75 75 74 73 72 71 70 70 69 67 65 62 61 59 58 56 57 64 69 71 67 63 66 65 65 70 74 78 83 89 95 99 103 103 102 103 104 103 101 103 102 103 104 100 99 100 98 94 91 94 90 87 91 93 96 102 102 96 97 95 73 64 89 114 107 93 101 105 103 88 57 70 108 115 107 96 93 104 108 106 96 90 100 102
77 80 84 86 88 88 86 84 80 78 76 76 77 76 73 71 68 63 61 60 58 60 66 71 70 69 73 70 69 71 72 77 81 85 93 98 100 102 103 103 104 102 100 101 101 105 104 100 100 95 95 100 99 100 101 99 102 102 99 101 100 98 102 99 84 78 94 113 112 102 98 96 105 110 82 69 98 116 110 104 101 102 104 103 102 102 101 101
84 90 96 99 100 99 97 93 89 85 81 80 81 82 81 79 76 71 68 67 64 63 66 71 72 74 80 80 76 73 74 75 76 84 93 95 95 95 99 103 105 102 94 93 101 103 98 101 101 91 96 107 103 100 102 100 100 101 100 101 100 101 102 94 79 80 98 109 108 106 105 100 100 110 102 77 81 108 114 107 105 100 100 102 102 105 101 98
90 97 101 103 103 103 101 99 96 92 88 86 85 85 84 84 83 80 77 75 71 70 71 71 72 76 83 88 87 83 80 76 80 92 92 92 92 88 96 103 100 95 90 95 105 100 97 98 88 91 106 106 100 104 105 101 101 101 101 100 99 101 103 98 84 76 91 110 113 106 101 103 101 101 108 93 74 91 111 110 104 98 99 103 104 104 101 101
94 98 99 98 96 95 95 96 97 97 94 93 92 91 88 88 88 87 86 84 80 77 76 73 73 76 83 91 95 92 87 83 93 101 97 96 91 87 101 104 94 94 95 100 104 95 99 98 81 95 113 98 95 106 105 103 105 101 103 104 101 102 101 95 86 82 97 114 114 107 98 96 104 103 106 100 83 86 102 111 108 98 96 102 108 106 100 104
94 98 97 95 90 88 86 86 88 91 93 95 96 95 92 91 90 91 91 93 92 88 85 80 74 77 82 87 91 93 92 93 99 106 103 98 92 95 105 103 100 101 92 94 104 103 101 99 93 102 110 103 101 105 104 105 105 102 103 105 102 102 99 90 84 85 104 116 101 94 101 102 106 105 101 100 96 96 99 104 108 103 96 96 104 108 103 104
90 95 97 95 89 86 83 81 81 83 86 89 92 93 93 93 93 93 94 98 99 92 89 85 80 83 88 90 90 88 90 92 97 107 107 96 93 102 104 102 106 100 90 91 99 108 101 92 101 103 102 111 108 102 107 106 104 103 102 103 102 103 101 94 89 82 92 110 98 86 93 102 106 98 96 106 104 100 102 101 103 104 102 99 98 103 105 105
89 90 93 93 90 86 81 78 78 78 80 83 87 89 91 93 95 96 97 103 101 89 86 88 86 87 90 95 95 89 88 91 94 103 107 101 95 101 101 101 106 97 94 96 93 105 100 85 97 101 99 111 106 101 108 104 105 105 101 103 100 102 106 99 97 94 96 100 93 93 98 98 102 90 89 108 102 94 104 105 103 102 103 105 100 98 101 103
95 91 89 89 89 86 82 78 76 75 75 77 79 81 84 86 89 91 94 100 97 87 89 94 92 91 91 94 92 88 89 91 92 95 102 103 96 98 97 94 104 99 89 95 98 102 97 86 96 99 98 107 103 102 104 98 105 105 100 103 93 93 105 105 99 97 104 104 89 95 105 101 103 93 87 102 97 92 107 108 103 104 103 105 103 103 103 100
99 97 95 93 91 89 85 81 78 75 73 72 72 72 73 74 75 79 83 86 84 81 87 92 91 93 94 94 90 88 88 86 86 87 88 91 88 92 92 86 97 97 85 94 100 94 89 89 98 98 97 103 102 102 99 93 103 106 101 103 93 85 97 107 105 96 93 97 91 94 101 102 109 103 90 93 91 92 107 110 105 103 102 104 106 105 105 104
97 97 97 98 97 96 91 87 82 78 75 71 69 68 67 66 67 70 70 68 67 67 73 78 82 86 86 88 89 89 90 84 83 86 85 86 83 84 86 83 85 86 83 88 89 85 84 86 94 98 94 95 94 92 89 88 97 100 98 103 100 91 91 96 103 102 88 80 84 90 90 87 100 111 99 89 85 85 94 102 106 106 101 101 106 107 105 105
95 93 93 93 94 94 91 89 85 81 78 73 71 68 66 67 68 69 65 60 57 56 57 61 66 71 72 76 80 80 82 81 82 87 90 91 90 87 87 87 84 82 81 81 80 79 76 75 82 87 85 85 87 85 81 81 88 91 90 95 98 94 93 90 92 95 88 82 86 90 86 75 80 103 109 94 76 69 81 97 104 109 107 99 99 105 107 107
88 89 89 88 87 87 86 85 82 79 76 73 70 68 67 68 69 66 62 58 56 55 54 54 55 59 61 64 68 68 67 70 74 78 81 84 87 89 89 88 88 87 84 83 84 81 76 75 76 75 75 75 76 78 76 74 80 86 87 89 92 93 92 91 92 90 86 90 93 91 91 79 70 88 106 101 76 57 71 97 101 99 102 103 101 102 104 104
84 85 86 86 86 84 82 80 77 74 72 70 67 65 64 66 64 61 57 54 55 55 51 49 49 52 55 56 58 59 56 58 61 63 68 70 73 78 81 81 82 84 84 84 86 86 84 83 80 78 77 75 74 74 72 69 69 73 75 76 80 85 85 85 91 91 85 88 92 88 83 74 69 79 91 92 81 61 56 76 95 94 89 96 105 105 103 103
82 82 81 81 80 79 76 73 71 68 67 65 63 63 63 63 60 57 55 52 53 53 47 45 46 46 49 51 51 52 51 51 51 51 54 57 58 62 66 68 70 74 76 77 78 80 80 79 80 80 78 79 81 80 77 74 73 72 71 69 68 71 73 71 74 79 79 80 84 85 80 71 69 75 79 80 77 70 56 56 81 92 82 85 101 107 106 106
80 77 76 75 73 71 69 67 65 63 61 60 58 58 59 56 54 53 52 51 50 48 46 45 45 44 45 47 46 47 48 47 46 46 47 49 50 52 55 58 62 63 64 67 68 67 66 68 72 73 72 74 80 86 87 80 76 77 79 77 74 71 71 67 63 63 63 66 71 76 76 73 72 71 76 81 78 77 69 58 73 92 85 78 90 105 107 105
75 73 70 69 67 65 63 60 59 57 55 54 53 54 54 52 51 51 50 49 47 45 44 44 43 42 44 44 42 43 45 43 42 43 43 43 44 46 48 50 52 53 54 58 60 60 61 63 65 64 59 60 68 81 86 80 76 75 76 80 82 81 80 74 70 67 62 56 56 60 62 63 66 65 65 72 75 77 74 65 71 90 95 83 76 87 97 97
72 69 66 65 62 60 58 57 55 54 54 53 53 53 54 54 53 51 50 49 48 48 47 46 45 46 47 45 42 42 44 42 41 42 42 41 41 41 42 42 42 44 45 46 49 53 55 58 61 60 55 55 59 63 65 66 72 72 69 73 79 83 82 72 66 67 67 59 51 54 58 55 56 58 58 60 60 61 65 63 62 68 79 84 73 70 80 84
68 65 63 63 61 59 58 56 55 55 55 55 56 56 57 57 55 53 51 50 50 50 49 47 46 46 46 45 42 42 44 42 41 42 43 43 42 41 41 41 41 42 42 41 41 44 44 46 50 52 51 53 55 54 52 52 56 62 64 68 71 74 76 69 58 54 59 60 56 58 62 62 61 60 60 61 59 56 54 53 55 53 53 62 66 63 65 68
66 64 63 62 62 60 58 57 58 59 61 61 61 60 57 54 52 48 46 44 42 41 40 40 38 37 37 36 35 35 35 36 35 35 36 36 37 37 37 38 38 39 39 38 38 39 39 39 41 42 42 44 46 45 45 46 48 51 55 61 64 64 66 66 61 56 56 56 53 53 58 63 67 67 67 68 67 68 66 55 51 54 50 48 51 53 53 53
66 66 67 66 65 65 63 62 63 61 62 64 62 57 51 45 41 39 36 33 33 33 32 31 31 31 30 30 30 30 29 29 29 29 29 28 28 28 29 29 29 30 30 30 31 32 33 33 34 35 35 36 38 38 37 41 43 43 44 49 53 55 56 57 57 57 57 55 50 49 52 56 60 65 71 72 69 74 82 76 65 61 58 53 49 48 50 50
69 73 78 76 71 70 65 59 53 49 48 49 47 43 41 38 34 33 34 31 30 31 32 31 31 31 31 32 32 32 31 30 30 31 31 29 29 28 27 28 29 29 28 28 28 27 27 28 27 28 29 28 29 30 31 32 33 35 37 38 40 43 46 47 49 50 50 51 49 47 49 51 54 60 63 65 67 68 73 80 79 73 67 63 58 54 51 52
78 78 79 73 63 57 52 45 41 41 40 39 37 36 37 36 33 35 39 39 36 34 34 35 34 34 35 36 36 37 37 36 35 35 36 35 34 31 30 31 33 33 31 31 31 29 27 28 27 28 29 29 28 27 28 28 28 28 29 29 31 33 35 38 40 42 42 42 42 42 43 44 49 56 56 56 61 63 64 70 75 72 66 65 64 60 54 52
70 62 56 51 44 40 39 36 35 37 36 35 36 37 39 41 38 38 40 42 43 41 39 39 39 39 40 40 41 41 40 39 38 37 37 37 36 33 32 32 33 35 34 33 33 32 32 32 31 30 31 31 32 32 31 31 31 31 30 28 27 26 27 29 30 32 34 34 34 36 36 36 39 45 48 48 52 57 59 63 67 67 64 61 60 59 57 54
47 42 39 38 37 36 35 33 33 35 37 39 39 38 40 44 44 43 42 42 45 45 44 44 43 42 43 42 41 41 40 38 38 39 38 37 36 34 34 34 33 35 35 37 37 37 39 38 33 32 33 33 34 34 34 35 35 35 34 32 30 28 26 26 25 25 25 26 27 29 30 31 33 36 37 38 42 45 47 49 53 56 60 62 60 59 61 60
37 37 36 35 35 35 36 37 38 40 42 46 48 46 44 44 44 46 44 41 42 45 45 44 43 42 42 41 40 40 40 38 39 40 39 38 37 36 36 37 37 38 38 41 44 43 42 41 39 37 36 36 36 37 38 39 38 35 34 33 33 33 32 31 30 28 25 23 24 24 24 24 25 29 30 31 33 35 35 38 40 41 46 52 53 52 55 59
36 35 35 36 37 38 40 43 46 46 47 48 50 50 48 45 43 46 48 43 40 43 44 42 41 41 41 42 42 43 42 41 40 40 39 39 40 39 39 40 40 41 42 45 48 47 45 44 44 42 40 38 40 42 44 44 41 38 37 35 34 35 36 36 36 34 31 29 28 26 25 23 23 24 24 25 28 29 28 30 32 33 34 36 37 38 42 45
34 34 36 39 44 47 48 48 49 48 47 48 48 47 47 46 41 42 49 52 47 43 44 43 42 45 45 45 45 45 45 44 42 41 41 42 44 44 44 44 43 44 46 49 50 50 49 48 47 47 45 44 44 46 49 49 46 43 41 38 36 37 37 36 37 39 38 35 33 31 30 27 25 25 24 24 26 25 25 25 25 27 28 28 30 32 33 35
34 37 40 42 45 50 52 54 56 54 48 46 47 46 46 48 46 43 47 56 57 52 50 49 49 50 49 48 47 47 47 47 44 43 43 45 49 50 50 49 47 47 49 51 51 51 50 49 51 52 50 49 49 50 53 54 51 48 46 43 42 42 41 40 38 40 42 40 36 35 36 34 30 30 29 29 30 28 24 23 22 23 24 24 25 25 27 29
41 43 48 51 52 54 55 54 57 60 55 48 48 50 50 53 56 53 50 55 60 61 59 58 58 56 52 51 51 51 52 52 48 45 47 51 53 53 54 55 52 47 47 48 48 51 54 54 55 54 52 53 56 55 57 58 55 52 48 48 51 52 51 47 43 43 46 44 39 37 38 36 35 36 36 36 39 37 32 28 25 23 22 22 23 22 22 24
53 54 57 61 62 63 63 58 52 54 54 53 56 58 58 60 62 60 58 59 61 63 62 62 63 61 59 57 54 55 58 56 53 55 61 61 56 54 56 59 56 50 47 48 49 51 56 60 61 59 56 59 62 62 62 61 58 56 52 52 55 57 56 54 52 51 50 47 43 41 40 39 41 43 41 39 41 40 37 34 30 28 25 24 23 23 22 22
61 64 67 73 75 74 74 72 68 65 62 60 65 67 64 65 65 62 61 61 61 63 64 63 64 66 67 66 63 63 64 61 65 73 73 65 60 62 63 62 60 56 52 51 52 51 54 60 65 65 61 61 67 68 64 62 59 55 52 55 60 61 61 62 59 55 52 50 49 48 45 43 47 48 43 39 39 37 36 35 34 33 31 28 26 26 24 23
69 73 76 83 89 88 86 85 86 86 80 74 73 70 66 69 70 67 67 65 62 65 67 66 67 69 70 70 69 69 67 68 76 81 73 66 66 70 70 67 63 59 56 55 55 55 56 58 64 66 61 62 70 69 65 66 59 48 50 63 72 71 66 62 58 56 57 58 56 53 50 48 49 49 45 42 41 39 37 36 35 33 32 31 30 28 27 27
84 88 90 93 97 97 94 91 87 82 79 78 77 71 67 67 67 66 67 67 64 64 64 64 65 65 65 66 66 67 67 69 76 77 71 69 70 69 69 67 62 59 59 60 60 61 62 62 64 65 60 61 68 68 66 64 53 48 62 77 76 68 61 58 59 61 63 63 57 51 50 49 46 43 41 42 42 40 39 37 35 34 34 34 32 29 29 30
Wind_Speed
36 37 38 40 42 44 47 49 52 54 57 59 61 63 65 67 68 70 71 72 73 74 75 76 78 79 81 82 84 86 87 89 91 93 95 97 100 102 103 105 106 107 108 108 109 109 109 108 107 107 106 106 106 106 105 105 105 104 103 102 102 102 102 104 105 105 108 109 103 94 90 91 95 97 97 97 97 97 94 94 93 94 96 93 91 90 91 92
32 33 34 35 37 39 41 43 46 48 50 53 55 57 59 61 63 65 66 68 69 71 72 74 75 76 78 79 80 82 83 85 86 87 89 91 93 95 97 99 100 102 103 104 105 106 106 106 106 106 106 105 106 106 105 105 105 104 103 102 101 102 104 106 106 105 104 102 98 95 92 94 97 96 96 96 97 96 93 94 94 94 93 91 90 90 90 91
28 29 30 31 32 34 35 37 39 41 44 46 48 50 53 55 57 59 61 63 65 66 68 70 71 73 74 75 77 78 79 80 82 83 85 86 88 89 91 93 94 96 97 99 100 102 102 103 104 104 104 104 105 104 104 104 104 104 103 101 101 104 106 105 103 100 98 97 97 95 93 96 97 93 93 95 95 94 93 94 94 93 91 89 88 88 89 89
25 25 26 26 27 28 30 31 33 35 37 39 41 44 46 48 50 52 54 56 58 60 62 64 65 67 69 70 71 73 74 76 77 79 80 82 83 84 86 87 89 90 92 93 95 96 97 99 100 101 101 102 102 102 102 103 103 102 101 100 101 103 103 100 97 95 95 97 97 94 94 97 96 92 92 94 94 93 93 93 91 89 87 86 87 88 89 88
22 22 22 23 24 25 26 27 28 30 32 34 36 38 40 42 44 46 48 50 51 53 55 57 58 60 62 63 65 67 68 69 71 73 75 76 78 79 81 82 84 85 87 88 89 91 92 93 94 95 97 97 98 98 98 99 99 97 97 98 99 98 98 96 92 92 94 96 96 93 94 97 93 89 90 92 92 91 91 90 86 85 85 86 88 88 87 86
20 20 21 22 23 23 24 25 26 27 29 30 32 33 35 36 38 40 41 43 45 47 48 50 51 52 54 56 57 59 60 62 64 66 68 70 72 73 75 77 78 80 82 83 84 86 87 88 89 90 91 92 93 93 94 94 93 93 94 95 93 93 93 91 87 89 92 93 92 89 90 91 86 86 89 89 90 87 86 86 83 85 86 84 85 85 84 84
20 21 21 22 23 23 24 25 26 26 27 28 29 31 32 33 34 35 37 38 39 41 42 43 44 45 46 48 49 51 52 54 56 58 60 62 63 65 67 69 71 73 75 77 78 80 81 83 84 85 86 87 88 88 88 88 88 88 89 89 88 88 88 85 84 87 88 88 88 85 85 86 84 87 87 85 86 83 82 83 82 84 84 80 82 83 81 81
22 23 23 23 23 24 24 25 26 26 27 27 28 29 29 30 31 32 33 34 35 36 37 37 38 39 40 41 43 44 45 47 48 50 51 53 54 56 58 60 63 65 67 69 71 73 75 76 78 79 80 81 82 82 82 82 83 84 85 84 82 82 83 80 81 84 84 84 84 81 81 83 82 83 80 81 84 79 78 81 81 81 79 77 79 80 78 78
25 25 25 25 25 26 26 26 27 27 27 28 28 28 29 29 30 31 31 32 33 33 33 34 34 35 36 37 38 38 39 40 42 43 44 46 47 49 50 52 54 56 59 61 63 65 67 69 71 72 74 75 75 76 76 78 79 78 78 77 75 77 78 75 77 80 79 79 79 77 78 79 78 77 76 79 81 75 74 79 77 77 76 75 76 76 75 74
27 27 27 27 27 28 28 28 28 29 29 29 30 30 30 30 31 31 32 32 32 32 32 32 33 33 33 34 34 34 35 35 36 37 38 40 41 43 44 46 48 50 52 54 56 58 59 62 64 65 67 68 69 69 70 72 71 70 71 70 70 73 72 70 72 73 72 73 73 72 74 73 72 73 73 77 76 70 72 76 73 73 74 72 72 73 72 71
28 28 29 29 29 30 30 30 31 31 31 32 32 32 32 32 33 33 33 33 33 32 32 32 32 32 33 32 32 31 32 31 32 33 33 34 36 37 38 40 42 43 45 47 48 50 52 55 57 59 60 60 62 63 64 65 63 63 65 65 65 66 65 65 67 66 67 68 67 67 68 67 67 68 71 73 69 65 71 73 69 70 70 69 69 69 70 68
30 30 30 31 31 32 32 33 33 33 34 34 34 34 34 35 35 35 35 34 34 34 33 33 33 33 33 31 30 30 29 29 29 29 29 30 30 31 32 33 35 36 38 40 41 43 45 47 49 50 51 54 55 54 56 57 57 57 58 59 59 59 59 59 61 60 62 62 60 62 63 62 62 64 69 68 60 62 69 68 64 65 66 66 64 64 66 64
31 32 32 33 33 34 34 35 35 35 36 36 36 36 36 36 37 37 36 36 36 35 35 34 34 34 33 31 30 29 28 27 27 26 26 26 26 26 27 28 29 30 31 33 34 36 38 40 42 43 45 47 46 46 50 51 50 51 51 52 52 52 53 55 56 54 56 55 54 58 58 57 59 62 65 60 53 60 65 62 60 61 62 62 60 61 62 60
32 32 33 34 34 35 36 36 36 37 37 37 37 37 37 37 38 38 38 38 38 38 37 36 35 35 34 32 31 30 29 27 26 25 24 23 23 23 23 24 24 25 26 28 29 30 32 34 35 36 38 39 38 42 45 44 44 45 45 47 47 46 49 51 48 47 50 50 49 53 52 53 56 58 58 50 48 57 60 58 57 57 57 58 57 58 58 56
32 33 34 34 35 36 36 37 37 38 38 38 38 38 38 38 38 39 40 40 40 40 39 38 37 36 35 34 32 32 31 29 27 25 24 23 22 21 21 21 21 22 23 24 25 27 28 29 30 31 33 33 34 38 39 38 40 40 40 42 42 42 45 45 41 42 47 46 45 48 47 49 53 53 49 42 45 54 56 54 53 53 53 54 53 55 55 53
33 34 34 35 35 36 36 37 38 38 39 39 39 39 39 39 39 39 40 41 41 41 40 39 38 38 37 35 34 34 33 31 29 27 26 24 22 22 21 21 22 22 22 22 23 24 25 26 26 28 29 30 31 33 34 34 35 36 36 38 38 39 41 39 35 40 44 41 40 43 44 46 50 49 39 36 44 52 52 50 50 50 50 51 51 51 53 50
33 33 34 34 34 34 35 35 36 37 38 39 40 40 40 40 40 40 40 41 42 42 42 41 40 39 38 37 36 35 34 33 32 30 29 27 25 25 23 23 23 24 25 24 24 24 24 25 26 27 27 29 30 30 31 31 32 33 32 32 34 35 36 36 34 36 39 36 37 40 42 44 47 45 34 33 45 52 50 47 46 48 47 49 50 49 50 49
31 31 31 30 31 31 31 32 32 34 35 37 38 39 40 40 41 41 41 42 42 43 42 42 41 40 39 39 38 37 36 35 34 33 32 31 29 28 27 26 25 25 26 26 27 27 26 27 28 28 28 27 28 29 29 29 30 30 28 29 32 32 33 35 34 31 32 36 39 38 40 44 45 42 32 32 45 52 49 45 45 47 47 48 49 47 47 47
28 28 28 27 28 28 29 29 29 30 31 32 34 35 37 38 40 41 41 42 42 42 43 43 42 41 41 41 40 38 38 37 36 35 34 34 33 32 31 30 29 28 28 27 28 28 30 30 31 31 31 30 29 29 29 29 31 33 32 33 34 33 34 37 34 27 28 38 44 41 40 42 44 43 35 32 42 51 51 48 46 46 48 48 47 46 45 45
27 27 27 27 27 27 27 28 28 28 29 29 30 31 33 34 36 38 39 41 41 42 43 43 42 41 42 42 42 40 39 39 38 37 37 36 36 35 35 33 33 32 32 31 30 31 33 32 32 32 31 33 33 34 34 33 36 37 37 37 38 38 41 42 37 29 31 41 47 45 42 42 44 45 40 33 38 48 53 51 48 48 47 46 46 47 45 44
27 27 27 28 28 27 27 27 27 28 28 28 28 29 30 31 32 34 36 38 40 41 42 43 42 42 42 43 43 42 41 40 39 39 39 39 39 37 37 37 37 37 36 35 34 36 36 35 35 32 32 35 36 38 40 39 40 40 40 40 41 43 47 46 40 35 38 42 47 47 45 44 45 46 44 39 38 43 51 53 51 49 46 45 47 48 46 44
28 28 29 29 29 28 28 28 28 28 28 28 28 28 28 29 30 31 32 35 37 39 41 42 42 42 42 43 43 43 42 41 39 41 42 42 41 40 40 40 40 40 39 38 38 40 40 39 37 34 37 38 36 39 43 42 43 44 44 44 43 44 48 48 43 38 38 43 49 50 47 46 47 47 45 44 40 40 45 51 52 49 45 45 47 48 47 46
30 30 30 30 30 30 30 29 29 29 28 28 28 28 28 28 29 29 30 32 34 36 38 40 41 42 42 43 43 43 43 41 40 42 43 44 43 41 42 43 43 42 41 41 42 43 43 42 39 39 43 41 38 41 43 44 46 46 46 47 47 48 50 50 45 40 41 47 53 52 48 47 50 50 46 45 45 42 44 48 51 49 46 45 47 48 47 46
32 32 32 32 32 32 32 31 31 30 30 30 30 30 29 29 29 30 30 31 32 34 35 37 39 40 42 43 44 44 43 42 41 43 45 45 43 43 44 45 45 45 44 43 44 46 45 44 43 44 45 44 43 44 45 46 47 47 48 48 48 49 50 50 47 43 46 52 53 50 49 49 52 52 47 46 48 47 47 49 50 50 49 47 47 48 48 47
34 34 34 34 34 34 34 33 33 32 32 32 31 31 31 30 30 30 30 31 33 34 34 35 36 38 40 42 44 44 44 43 42 43 47 46 44 45 45 45 46 47 46 44 45 48 48 45 46 48 46 48 49 48 48 49 49 50 50 49 50 51 50 50 48 46 49 53 53 50 50 51 54 52 48 49 51 50 50 50 51 51 51 50 49 49 49 48
35 36 36 36 36 36 36 35 35 34 34 34 33 33 33 32 32 32 32 33 35 34 34 35 36 37 39 40 43 43 43 44 43 44 47 48 46 47 47 47 48 48 47 46 46 48 49 46 48 49 48 50 52 51 52 51 51 52 52 51 52 52 52 52 50 49 51 54 53 51 52 54 55 53 51 52 52 51 51 52 52 53 53 52 52 51 50 49
37 38 38 38 38 38 37 37 37 36 36 36 35 35 35 35 35 35 35 36 37 36 35 37 37 38 39 40 42 42 42 43 44 44 47 49 48 48 49 48 49 51 49 48 49 50 50 48 49 51 50 52 53 53 54 52 53 55 54 55 55 53 53 54 54 53 54 56 53 52 55 55 55 55 54 54 53 52 54 54 53 53 54 54 54 52 51 50
38 39 39 40 40 39 39 39 39 38 38 38 37 37 38 38 38 38 39 40 39 38 38 39 39 39 40 41 42 42 43 43 44 45 47 48 48 49 50 49 50 53 51 51 53 53 52 50 51 53 53 54 55 55 55 54 55 57 56 57 58 55 55 56 57 56 57 57 54 54 56 56 56 57 58 57 55 55 55 56 55 55 55 56 56 55 53 52
39 40 40 40 41 41 41 41 41 41 40 40 40 40 40 41 41 42 43 43 42 41 41 41 42 43 43 43 44 44 45 45 44 45 47 48 49 49 50 50 51 52 52 53 54 54 54 52 53 55 56 56 57 57 57 56 57 59 58 59 60 59 59 59 59 60 59 58 56 58 58 57 56 58 60 60 59 57 57 56 56 57 58 57 57 57 56 56
40 40 40 41 41 42 42 42 43 43 43 43 43 43 43 43 45 46 46 46 46 45 44 44 45 46 46 46 47 48 48 47 46 47 48 49 50 50 50 51 52 52 52 53 54 55 55 54 55 57 57 57 58 59 58 57 59 60 60 61 62 61 62 62 62 62 62 59 60 61 61 59 57 58 63 64 61 57 56 57 58 58 60 60 59 59 59 59
40 40 41 41 42 42 43 44 44 45 45 45 45 45 45 46 47 48 49 48 48 48 48 47 47 48 49 49 50 52 51 50 50 50 51 51 52 52 53 53 53 54 54 54 55 56 55 55 56 57 57 58 59 60 60 59 59 61 62 62 63 63 63 63 64 65 63 62 63 64 64 62 59 59 64 67 64 57 56 59 62 62 62 62 61 61 61 61
40 41 41 42 42 43 44 44 45 45 46 46 46 46 46 48 50 50 51 50 49 51 51 50 49 49 50 51 53 54 54 54 54 54 55 55 55 55 56 57 56 57 57 57 57 58 57 57 57 57 58 58 59 60 61 60 60 62 63 64 64 66 66 65 65 67 65 65 66 66 66 64 61 62 66 67 66 62 59 61 64 65 65 64 63 63 63 64
41 41 42 43 44 44 45 46 46 46 47 47 47 47 48 50 51 51 52 51 51 53 53 51 51 51 52 53 54 56 56 57 57 56 57 58 58 58 59 60 59 60 61 60 61 61 61 60 60 60 60 59 60 61 62 62 61 62 64 65 65 66 68 67 67 68 67 67 67 68 67 65 63 64 66 67 68 66 65 64 65 68 68 67 66 66 65 66
42 42 43 44 44 45 46 46 47 47 47 48 47 48 50 51 51 51 52 52 53 54 53 52 53 52 53 54 55 56 58 58 58 57 58 59 60 61 61 62 63 63 64 64 65 65 64 64 64 65 64 62 61 63 65 65 64 63 64 66 66 67 69 69 68 69 69 68 68 68 68 66 66 66 67 68 69 69 69 67 67 70 71 70 69 69 68 68
42 43 43 44 45 45 46 47 47 48 48 49 48 49 51 52 52 52 53 53 54 54 54 54 54 54 54 56 56 56 59 60 58 58 59 60 60 61 62 63 64 65 65 65 66 67 66 66 68 69 68 65 64 66 69 69 68 67 67 67 68 69 72 71 70 70 71 70 68 67 68 67 67 68 68 68 69 70 72 71 70 71 73 74 73 71 72 71
43 44 44 45 46 47 47 47 48 48 48 48 48 48 49 49 50 50 51 52 51 52 52 52 52 52 53 56 56 55 57 59 58 58 60 60 61 61 63 64 64 65 66 66 66 67 67 67 69 71 70 69 69 71 73 71 70 71 71 70 71 73 75 75 73 73 73 72 68 67 68 67 67 68 68 70 71 71 72 74 74 74 73 75 76 74 74 75
44 44 45 45 45 46 45 45 45 44 44 44 44 45 45 45 47 46 47 47 46 47 47 47 48 47 49 52 53 52 53 55 56 55 55 58 59 60 61 62 63 64 66 67 66 68 69 67 68 70 71 70 72 74 74 73 72 73 73 74 76 77 78 80 79 76 76 75 72 70 70 69 69 69 69 71 72 72 74 74 75 76 74 74 76 76 75 76
44 43 43 43 42 42 41 41 40 40 41 41 41 43 43 43 43 43 42 42 41 42 42 42 43 42 44 46 47 48 48 49 51 51 50 53 54 54 55 58 59 59 62 63 64 66 68 67 67 70 71 71 73 75 73 72 73 74 74 76 79 80 80 82 82 81 80 80 77 74 73 73 72 71 71 73 73 73 76 76 75 76 76 75 75 76 76 76
41 40 40 40 40 40 39 39 39 38 38 37 37 40 41 40 37 37 38 38 37 38 38 38 39 39 40 41 43 45 45 44 46 48 48 49 50 50 51 53 54 55 57 59 60 62 65 65 64 66 69 70 72 73 71 70 73 75 75 77 79 81 82 83 83 83 83 84 82 79 77 77 76 74 75 77 77 76 77 79 78 78 79 77 76 76 76 76
39 38 38 38 39 39 39 38 36 34 34 34 35 35 36 36 33 34 37 37 35 36 37 37 38 38 39 40 42 43 44 44 44 46 48 49 49 49 49 50 51 54 55 56 59 60 61 62 60 60 65 67 68 70 69 69 71 73 76 78 79 80 81 82 83 84 85 86 85 82 81 79 78 79 80 80 81 81 81 81 82 82 82 80 79 79 78 77
38 37 37 38 38 37 36 34 32 30 31 33 34 33 33 35 33 32 35 37 37 36 37 38 39 39 40 41 43 45 45 46 46 47 49 51 52 51 49 49 52 55 56 56 59 61 60 61 60 58 62 64 65 67 69 68 69 72 75 76 77 79 79 80 82 83 85 87 86 85 84 80 78 80 82 82 84 86 85 84 85 86 85 83 83 84 82 79
37 36 35 35 34 33 33 31 29 30 31 33 33 32 33 36 35 33 34 36 38 39 39 40 41 42 43 44 45 47 48 48 49 50 51 53 55 54 51 51 53 56 58 58 60 61 61 63 63 59 60 62 63 66 68 69 69 72 75 75 76 78 78 79 81 82 84 85 84 84 85 81 77 79 82 83 86 88 87 86 87 89 89 88 87 87 86 84
33 32 31 31 31 31 32 31 30 31 32 33 34 33 33 35 35 36 37 36 39 42 42 43 44 45 46 47 47 49 50 49 50 52 53 54 56 55 54 55 55 56 58 59 61 61 61 65 65 61 60 61 62 64 67 69 72 74 75 75 76 77 78 79 80 81 81 81 80 81 84 81 76 77 81 83 86 88 87 86 87 89 90 91 90 89 88 89
30 29 29 30 30 31 32 33 32 32 32 34 36 36 36 36 36 38 41 39 40 43 44 45 46 46 48 49 49 50 51 51 50 53 54 55 57 56 55 56 57 57 58 59 62 63 62 64 64 62 61 60 60 62 65 70 74 75 75 74 74 75 76 77 79 81 80 77 77 80 84 81 75 74 78 80 84 86 86 85 86 88 89 89 90 90 89 91
28 28 29 31 32 33 33 34 34 34 34 35 37 38 39 39 37 39 43 44 42 43 46 47 47 48 49 50 50 51 53 53 52 53 55 56 58 58 58 57 57 58 58 59 62 64 63 64 64 64 62 59 59 61 65 70 73 73 73 73 72 73 74 75 77 80 79 76 77 82 84 83 77 75 76 76 79 83 83 82 85 88 89 89 90 89 90 92
30 30 30 31 33 34 34 35 36 36 36 37 38 40 41 43 41 39 43 48 48 47 48 49 49 50 51 51 52 52 54 56 55 55 55 56 58 59 59 58 58 59 59 60 63 64 64 64 63 64 62 59 59 60 64 69 71 71 71 71 70 71 72 73 74 76 77 77 79 81 83 83 79 77 75 74 76 81 82 82 84 86 88 88 88 88 88 90
31 31 32 32 33 35 36 36 38 39 39 39 40 42 43 45 46 43 43 48 52 51 51 52 52 53 53 53 54 54 55 57 57 56 56 56 57 60 60 60 61 60 59 61 62 64 65 64 63 64 62 59 59 60 63 67 68 68 68 67 67 67 69 71 73 73 75 79 80 78 79 81 79 76 74 73 76 81 84 85 85 86 86 85 86 86 85 87
32 32 34 35 36 37 39 39 40 42 43 42 43 46 47 48 51 50 48 49 52 53 53 54 55 56 56 55 56 56 56 59 59 57 57 58 58 59 60 62 64 62 60 61 61 62 64 63 63 65 62 59 59 60 62 66 67 66 65 62 61 63 66 70 72 72 74 78 79 76 76 79 77 74 72 71 74 80 84 87 87 87 86 84 84 85 84 85
35 35 36 38 40 41 43 43 43 45 46 45 47 49 50 51 53 53 52 52 53 54 55 55 56 58 58 58 58 57 58 60 59 58 59 60 60 60 60 62 65 65 63 62 62 62 62 62 63 64 62 58 59 61 63 65 65 65 62 57 57 60 65 69 70 71 74 77 78 76 76 76 73 72 72 71 73 77 82 85 86 86 85 84 83 84 84 83
38 39 40 42 45 45 46 48 48 49 49 48 50 52 52 53 55 55 55 55 54 56 57 56 56 58 59 60 60 59 60 59 58 60 62 62 60 60 62 63 65 67 65 64 65 64 63 61 62 64 61 56 57 62 64 65 66 64 56 53 56 62 66 69 70 72 73 74 75 75 77 74 71 71 73 73 73 75 77 81 82 83 83 83 82 83 83 82
42 43 44 45 48 49 49 50 51 52 52 52 53 54 53 54 56 56 57 58 56 56 58 58 58 59 60 61 62 62 61 58 58 62 64 62 61 61 63 64 65 66 66 66 67 67 66 63 62 64 61 53 56 64 65 66 67 58 48 50 59 66 68 69 69 70 71 72 74 75 75 74 71 71 73 73 73 73 75 77 79 79 79 79 79 79 78 78
45 47 47 48 49 51 52 52 53 53 53 54 56 56 55 55 56 56 57 60 60 60 60 60 60 61 61 62 63 63 62 59 60 63 64 63 63 63 63 64 66 66 67 68 69 68 68 66 64 65 62 53 55 64 66 66 62 50 46 56 65 67 67 67 66 67 69 72 74 74 74 73 72 71 71 72 72 73 73 75 75 74 75 76 76 75 74 74
Wind_Direction
252 251 251 250 250 250 249 249 249 248 248 248 248 249 249 250 250 251 251 252 252 253 254 254 255 255 255 255 255 255 255 255 255 255 256 256 256 256 256 256 257 257 258 258 259 259 260 260 261 261 261 262 262 263 263 263 264 264 264 264 264 264 264 264 264 265 267 269 271 270 268 266 267 268 269 269 269 270 270 270 270 270 271 272 271 272 272 273
252 251 251 250 250 250 250 250 250 249 249 249 249 249 250 250 250 251 252 252 253 253 254 255 255 256 256 256 257 257 257 257 257 257 257 257 257 257 256 256 257 257 257 258 258 259 259 260 260 261 261 261 262 262 263 263 263 263 263 264 264 264 263 264 265 267 269 270 269 267 266 265 266 267 268 268 269 270 269 269 269 269 270 271 272 272 271 270
251 250 249 249 250 250 250 250 250 250 250 250 250 250 250 250 251 251 252 252 253 254 254 255 256 256 257 257 258 258 258 258 258 258 258 258 258 258 257 257 257 257 257 257 258 258 259 259 260 260 260 261 261 262 262 262 262 263 263 263 263 263 264 265 266 268 267 267 266 265 265 265 265 266 266 267 268 268 267 268 268 268 269 271 271 269 268 268
248 248 248 248 249 249 250 250 250 250 250 250 250 251 251 251 251 252 252 253 253 254 255 256 256 257 258 258 259 259 259 259 259 259 258 258 258 258 258 258 258 258 257 257 258 258 258 258 259 259 260 260 260 261 261 261 261 262 262 262 262 263 264 265 265 265 264 264 264 264 264 264 265 265 265 266 266 266 266 267 268 268 268 268 266 266 267 269
245 245 246 247 248 248 249 250 250 251 251 251 251 251 252 252 252 252 253 253 254 255 255 256 257 258 259 259 260 260 260 260 260 259 259 259 259 259 259 258 258 258 258 258 257 257 257 258 258 258 259 259 259 259 260 260 260 261 261 260 261 262 263 263 263 262 262 263 263 263 263 264 266 265 264 264 264 264 266 267 266 266 265 264 265 266 268 269
243 245 246 247 248 248 248 248 248 249 250 250 251 252 252 253 253 254 254 255 256 256 257 258 259 260 260 261 261 261 261 261 261 260 260 260 259 259 259 258 258 258 258 257 257 257 257 257 257 257 257 257 257 258 258 258 259 259 259 260 260 260 261 262 261 260 260 261 262 262 262 263 263 262 261 262 263 265 265 265 264 263 263 264 266 267 267 267
247 247 248 249 249 249 248 247 247 247 248 249 250 251 252 253 254 255 256 257 257 258 259 260 261 262 262 263 263 263 263 262 262 262 261 261 260 260 259 258 258 257 257 256 256 256 255 255 255 255 255 255 256 256 257 257 257 257 257 258 258 259 260 260 258 258 259 260 260 260 260 261 260 260 262 263 263 263 262 262 262 262 264 265 265 266 266 267
251 251 251 251 251 251 251 250 249 249 249 250 251 252 253 254 255 256 257 258 259 260 261 262 263 263 264 265 265 265 265 264 264 263 263 262 261 260 259 258 257 257 256 255 255 254 254 254 253 253 253 254 254 254 255 255 255 255 256 257 258 258 258 258 257 257 258 259 259 259 259 259 259 260 262 261 261 261 261 262 262 263 264 263 264 265 266 266
253 253 253 252 252 253 253 253 252 252 252 253 253 254 256 256 257 258 259 259 260 261 262 263 264 264 265 265 266 266 266 266 265 264 263 262 261 260 259 258 257 256 255 254 254 253 253 253 252 252 252 252 252 252 253 253 254 255 256 256 256 256 256 256 256 257 258 258 259 258 258 259 260 260 260 259 260 261 260 261 262 262 262 262 263 264 264 265
254 254 254 254 254 254 254 254 254 254 254 255 255 256 256 257 258 258 259 259 260 261 262 263 264 265 265 266 267 267 267 266 266 265 263 263 261 260 259 258 257 255 255 254 253 253 253 252 252 252 252 252 252 252 252 253 254 255 255 255 255 255 256 256 256 257 258 258 258 258 258 259 259 259 258 258 260 260 259 260 260 261 261 262 262 263 263 263
255 255 255 255 255 256 256 256 256 256 257 257 258 258 258 258 258 258 259 259 260 260 261 262 263 264 265 266 268 268 268 267 266 265 264 263 262 261 260 259 258 256 255 254 253 253 252 252 252 252 252 252 252 252 253 254 253 253 254 254 254 255 256 255 256 256 256 257 258 258 258 258 258 257 257 257 259 259 258 259 260 260 261 261 261 262 262 262
255 256 256 257 257 258 258 259 259 259 259 259 259 260 260 259 259 259 259 259 259 260 261 262 263 264 264 266 268 269 270 269 268 266 265 264 263 262 261 260 259 257 256 254 254 253 252 252 252 252 252 251 252 252 253 253 252 252 254 253 253 255 255 254 254 255 255 257 257 257 256 256 256 255 255 257 258 258 258 259 259 260 260 260 261 261 262 263
257 257 258 259 259 260 260 261 261 261 261 260 260 260 260 260 260 259 259 259 259 259 260 260 262 263 264 266 267 268 270 270 270 269 268 266 265 263 261 260 259 258 256 255 254 253 253 252 252 252 251 251 252 252 251 251 251 252 252 253 253 253 254 253 253 255 256 256 255 255 255 255 254 253 255 257 258 257 258 258 258 258 259 260 260 261 262 263
260 260 260 261 261 262 262 262 262 262 262 262 261 260 260 259 259 259 259 258 258 258 258 259 260 261 263 264 265 267 268 269 269 270 269 268 267 265 262 260 259 258 257 256 255 254 253 253 252 252 252 252 251 250 250 251 251 251 251 252 252 251 252 253 255 256 255 254 253 254 255 255 254 254 256 258 257 257 258 258 257 258 260 261 261 262 263 264
263 263 263 263 263 263 263 263 263 263 262 262 261 260 259 258 258 258 258 258 258 257 257 257 258 259 260 261 263 264 264 265 266 268 269 268 267 266 265 264 265 263 261 258 256 255 254 253 252 252 251 250 249 250 252 251 251 252 251 253 252 251 253 254 254 255 253 252 254 256 256 256 256 254 256 259 257 257 257 257 258 259 261 262 262 263 264 264
265 264 264 264 264 263 263 263 263 263 262 262 261 260 259 258 258 257 257 257 257 257 257 257 257 257 258 259 260 261 262 263 263 264 265 266 265 264 263 263 264 267 268 266 263 260 258 256 254 252 252 251 250 252 253 253 253 253 252 253 255 254 255 255 252 253 255 254 255 258 257 257 258 256 256 258 258 257 257 258 260 261 261 262 262 263 264 264
264 264 264 264 264 263 263 262 262 262 262 261 261 260 259 259 258 257 257 257 257 257 257 257 256 257 258 258 259 260 261 261 261 261 262 262 262 261 261 259 258 260 263 267 268 267 265 262 260 258 255 253 253 254 254 254 254 255 256 258 259 257 258 256 249 251 259 259 255 257 258 258 260 259 254 250 254 257 259 260 261 262 261 261 262 262 264 264
264 264 264 264 265 264 264 263 262 261 261 261 261 260 259 259 258 258 257 257 257 257 257 256 256 256 257 257 258 259 260 260 260 260 260 260 259 258 258 258 257 256 257 258 260 263 263 262 260 260 260 258 258 258 258 258 259 260 261 258 257 256 256 255 250 249 257 260 257 254 257 259 261 263 255 245 251 258 261 261 259 261 261 260 261 262 262 263
264 264 265 265 266 266 265 265 264 262 262 262 262 261 261 260 259 258 257 257 257 257 256 256 256 256 256 257 257 258 258 259 260 259 258 258 257 256 256 255 256 257 257 257 256 256 256 255 254 254 257 260 261 262 261 260 258 257 254 253 255 257 258 257 255 249 246 253 258 256 255 258 262 264 256 244 250 257 260 260 258 257 258 259 260 261 260 259
264 265 266 267 267 267 267 266 265 264 263 263 263 263 262 261 260 259 259 258 257 257 256 256 255 255 256 256 256 257 257 257 258 258 258 257 256 255 255 254 253 253 254 255 256 256 254 254 253 252 252 253 254 257 257 254 253 253 253 253 255 256 256 255 255 250 244 247 254 258 257 256 257 261 258 249 247 254 259 259 257 256 255 257 259 258 257 257
263 265 266 267 267 267 267 267 267 266 265 264 264 264 264 263 262 261 260 259 258 257 257 256 256 255 256 256 257 257 257 257 258 258 257 257 256 255 255 254 252 251 251 251 254 255 254 254 255 256 255 251 249 251 252 251 252 253 253 252 252 253 254 256 255 250 247 249 252 255 256 256 255 256 258 254 246 249 256 259 257 256 254 254 256 257 257 257
263 263 264 265 266 266 267 268 268 268 268 267 267 266 266 266 266 264 262 260 258 258 257 257 256 256 256 257 257 257 257 258 258 258 258 257 257 256 256 255 253 253 253 251 251 252 253 253 253 255 257 253 250 251 251 252 251 252 252 252 252 253 255 257 257 252 248 251 253 252 251 254 257 256 255 255 250 246 252 258 258 255 253 253 254 256 258 259
261 262 262 263 264 265 266 266 267 268 269 270 270 270 269 269 268 268 266 264 262 260 258 258 257 257 257 257 257 258 258 258 258 259 258 257 257 257 256 256 256 255 253 251 251 252 251 252 252 253 255 255 252 253 253 254 253 253 253 253 253 252 253 255 255 253 250 248 250 252 252 252 256 257 255 254 254 249 247 254 259 257 253 252 255 257 258 260
261 261 262 263 264 264 265 265 266 266 268 269 270 270 271 271 271 270 269 268 266 264 262 260 258 258 258 258 258 259 259 258 258 260 260 258 258 258 257 257 257 256 254 252 253 254 252 251 252 251 253 254 253 253 254 255 255 255 254 254 254 254 254 255 253 251 250 250 250 251 253 254 255 256 256 254 254 252 249 251 257 259 256 253 254 256 257 259
261 262 262 263 264 264 265 265 265 265 266 267 268 269 270 271 272 272 271 270 269 267 265 264 262 261 261 260 260 259 260 259 258 259 260 260 259 259 258 258 258 257 257 255 253 254 254 251 251 251 251 253 252 251 253 253 254 255 254 255 255 256 256 256 255 251 250 252 253 252 252 254 255 255 255 256 254 253 253 251 253 258 259 257 256 256 257 258
261 262 262 263 264 264 265 265 265 265 265 266 267 268 268 269 270 270 270 270 269 268 268 267 266 264 263 263 262 262 261 261 260 259 261 262 260 260 260 260 260 260 258 257 256 255 256 253 252 253 252 252 251 250 251 252 253 254 254 254 254 255 257 257 256 254 252 252 253 254 254 254 256 255 254 256 254 253 257 256 253 255 259 260 259 258 258 258
262 262 263 263 264 265 265 265 265 265 265 266 266 267 268 268 268 268 268 267 267 268 268 267 266 265 265 264 264 264 263 262 261 261 261 263 262 262 262 261 262 262 260 260 259 257 257 256 255 255 253 253 253 252 251 251 252 254 253 253 253 253 255 257 255 254 253 254 253 253 254 255 257 257 254 255 254 253 257 258 256 255 257 260 260 259 259 259
262 262 263 263 264 264 265 265 266 265 265 266 266 267 268 268 268 268 267 266 266 266 265 265 266 265 264 265 265 265 264 262 262 262 262 262 263 263 263 262 262 263 262 261 260 259 258 257 257 257 255 255 255 254 253 252 252 254 253 254 254 252 253 255 255 254 253 253 253 253 253 253 255 257 255 254 253 252 255 258 259 258 257 259 261 261 260 260
262 263 263 264 264 265 265 265 266 266 266 266 267 267 268 269 269 268 267 266 266 265 263 263 264 264 263 263 264 264 263 263 263 263 263 264 264 263 264 264 262 263 263 262 261 261 260 258 258 258 257 257 257 256 255 255 255 255 255 255 256 255 253 253 254 255 254 254 254 253 252 251 252 256 256 254 251 250 252 256 259 260 259 258 259 261 261 261
262 263 264 264 265 265 266 266 266 267 267 267 268 268 269 269 269 268 268 268 267 266 265 263 263 263 264 263 263 263 262 262 262 262 263 263 264 264 263 263 263 263 262 262 262 262 261 260 259 259 259 259 259 259 258 257 257 258 257 257 257 257 256 255 255 255 255 255 254 254 253 251 250 254 257 255 251 249 251 255 256 258 259 258 258 259 261 261
263 264 265 265 266 266 267 267 267 268 268 269 269 269 270 270 269 269 268 268 269 268 266 265 263 264 264 264 263 263 263 262 261 261 261 261 262 263 262 262 263 263 263 263 263 263 263 261 260 260 260 260 261 261 261 259 259 260 260 259 259 259 258 257 257 257 256 255 255 254 254 252 250 252 256 257 255 250 249 253 255 255 256 258 258 258 259 260
265 265 266 267 267 268 268 268 269 269 270 270 270 270 271 270 270 270 269 269 269 268 267 266 265 265 264 264 264 264 263 262 261 261 261 261 261 261 262 262 262 262 263 262 262 263 262 262 262 261 261 261 262 262 262 261 261 260 260 260 260 260 259 258 257 258 257 256 256 256 255 254 253 253 255 257 258 255 250 251 255 255 254 256 257 257 258 258
266 267 268 268 269 269 270 270 270 270 271 271 271 271 271 270 270 270 270 270 269 269 268 268 267 266 265 265 265 265 265 264 263 262 261 262 261 261 261 262 262 262 262 262 262 261 261 261 261 261 261 261 262 262 262 262 261 261 261 261 261 261 261 259 258 258 257 257 257 257 257 257 256 255 256 257 258 257 254 252 254 256 254 254 255 256 256 257
268 268 269 269 270 270 270 271 271 271 271 271 271 271 271 271 271 271 271 271 270 269 270 269 268 267 267 266 265 266 266 265 265 264 263 263 263 263 262 262 262 262 262 262 262 262 262 262 262 261 260 260 261 263 263 262 260 260 261 261 261 261 261 261 260 259 258 257 257 258 258 258 258 257 257 258 259 259 258 255 255 257 257 254 254 255 255 256
269 269 270 270 270 271 271 271 272 272 272 272 272 272 272 272 272 271 271 271 271 271 270 270 269 269 268 267 266 266 267 267 266 266 265 265 264 264 264 263 262 262 262 262 263 263 263 263 263 262 261 260 259 260 260 261 261 261 260 261 261 261 261 260 260 260 259 258 257 257 258 258 258 258 258 258 258 259 259 258 255 255 257 257 255 254 255 255
270 271 272 272 272 272 273 273 273 273 274 274 273 272 272 272 272 272 272 271 272 272 272 271 270 271 270 269 268 267 268 268 267 267 267 267 266 265 265 265 265 265 264 263 263 264 263 263 264 264 264 262 260 258 258 259 260 261 261 261 261 261 261 260 259 259 260 260 259 258 259 258 258 258 259 259 258 257 258 258 257 255 255 257 257 256 256 256
273 273 274 274 274 274 274 274 275 275 275 275 275 274 272 272 273 273 273 273 273 273 274 273 272 272 272 271 271 269 268 269 269 268 268 269 268 267 268 268 267 267 267 266 265 264 264 263 264 265 265 264 263 261 261 261 260 261 262 262 261 260 261 262 261 260 260 260 259 258 259 259 258 257 258 258 259 258 257 257 257 257 255 255 257 257 257 257
274 275 275 275 275 275 275 275 276 277 278 278 277 275 273 273 274 275 275 274 275 274 274 275 275 274 273 274 275 273 271 272 272 270 269 269 269 269 269 269 269 269 269 269 268 267 266 265 265 265 265 265 265 264 264 264 264 263 262 262 262 261 261 261 262 261 261 260 259 258 257 258 258 258 258 258 258 258 259 258 258 258 258 255 255 256 257 257
275 276 277 276 276 276 276 277 277 278 278 277 275 274 276 276 276 277 276 274 275 276 276 275 276 276 276 276 277 277 276 276 276 275 273 271 271 271 270 270 270 270 270 269 269 268 268 267 267 268 268 267 266 267 266 266 265 264 263 261 262 262 262 262 262 262 261 261 259 258 257 257 257 257 257 258 258 257 258 259 259 259 259 257 256 256 256 257
276 277 277 276 277 277 276 276 277 275 273 271 271 273 277 278 278 278 278 277 275 276 277 277 277 278 279 279 280 281 281 280 280 280 279 278 275 273 272 273 274 272 271 271 271 269 269 269 268 269 269 269 269 269 268 267 266 265 264 263 262 262 262 263 263 263 262 262 261 259 257 256 257 257 256 257 258 257 257 258 258 258 258 259 258 257 256 256
276 276 275 276 276 276 275 275 274 271 270 271 273 275 277 277 277 276 278 279 279 279 279 280 281 282 282 283 283 284 284 284 283 283 282 282 280 278 278 278 278 277 276 275 274 273 273 272 270 268 269 270 271 271 270 269 268 267 266 265 264 263 262 262 262 263 263 263 262 261 259 257 257 258 258 258 258 258 258 258 259 259 259 258 258 258 258 257
274 274 273 273 273 273 274 273 272 272 273 273 273 273 275 276 277 276 275 277 279 281 282 282 283 283 284 283 283 283 283 283 284 283 282 281 281 282 282 280 278 278 279 278 277 277 277 275 273 270 270 271 271 271 271 270 269 267 266 266 265 264 264 263 263 263 263 263 263 264 263 260 259 259 259 258 258 258 258 258 259 260 260 260 259 259 260 259
272 271 271 272 273 275 276 275 275 275 275 276 275 273 273 275 277 277 276 277 278 279 280 281 282 283 283 283 283 283 283 283 283 282 281 281 281 282 282 280 279 278 279 280 279 279 278 277 276 275 273 272 272 272 272 271 269 266 265 265 266 266 266 266 265 264 264 265 266 266 265 262 260 260 259 258 258 258 258 258 259 260 260 260 260 260 260 260
270 271 273 274 276 277 278 278 277 276 276 276 277 277 275 275 277 279 278 277 277 279 280 281 283 284 284 284 285 284 284 283 282 282 282 282 282 281 281 280 280 280 280 281 281 280 279 279 280 279 276 274 274 273 272 271 269 268 267 267 267 267 267 267 267 266 265 265 265 265 264 263 261 260 259 259 260 260 260 260 260 260 259 259 260 260 260 260
273 274 276 277 278 277 277 277 277 276 276 276 276 278 278 277 278 280 282 281 280 281 283 284 285 285 285 285 286 285 285 284 283 282 282 282 282 282 281 280 281 281 281 281 280 281 281 281 281 280 279 278 277 275 273 271 270 270 270 269 268 267 267 267 267 267 267 265 264 263 263 262 260 259 259 260 261 262 262 261 261 260 259 259 259 260 260 260
275 274 274 275 276 277 277 277 277 277 276 277 278 279 280 281 280 280 283 285 285 285 285 286 286 286 286 286 286 285 285 284 284 283 283 283 282 282 282 281 281 281 282 282 281 282 282 282 282 282 281 280 278 276 274 273 272 271 270 269 269 268 268 267 267 267 267 266 263 262 263 263 261 259 259 258 259 260 260 259 259 259 259 258 259 259 260 260
274 275 275 275 276 277 279 280 281 281 280 280 281 282 283 284 284 283 283 284 286 287 287 287 287 286 285 286 286 285 284 284 284 284 284 284 283 282 282 282 281 281 282 282 282 282 282 283 283 282 281 281 279 277 275 273 272 271 270 270 271 270 270 269 267 266 266 265 263 262 264 264 263 261 260 259 260 260 260 258 257 257 257 258 258 258 258 259
276 277 278 280 280 280 281 281 282 283 283 284 284 284 285 286 286 286 285 284 285 286 286 287 287 286 286 286 285 285 285 284 285 286 285 283 282 282 283 284 283 283 282 281 282 282 283 283 283 282 282 282 280 278 275 273 272 271 271 271 272 273 271 270 268 267 266 266 265 264 263 264 264 264 263 261 261 261 261 260 259 258 257 257 257 257 257 257
281 281 283 284 284 284 284 284 283 284 284 285 286 285 285 286 286 286 286 285 285 285 285 286 286 287 287 286 286 286 285 285 286 287 285 282 282 283 283 283 284 284 284 283 282 281 281 282 282 282 282 282 281 279 275 273 272 271 271 273 274 272 271 269 268 267 266 266 266 266 265 265 265 266 264 261 259 259 260 261 261 261 260 259 258 257 256 256
284 284 285 286 285 286 286 286 287 286 286 287 286 286 286 286 286 286 287 286 286 286 286 286 286 287 287 287 287 286 285 286 287 286 283 282 284 284 284 284 284 285 285 285 284 283 282 282 282 282 281 282 281 277 274 273 271 270 273 277 276 272 269 267 267 266 266 267 268 268 268 267 267 267 265 263 261 260 260 261 262 262 261 260 259 258 258 256
284 284 285 285 285 286 286 286 286 286 287 288 286 286 286 287 287 288 289 288 288 287 287 288 287 287 287 287 287 286 285 286 286 283 283 284 285 284 284 284 284 285 286 285 285 284 284 284 283 282 281 281 278 275 273 272 272 275 281 279 272 267 266 266 267 268 269 270 269 269 269 269 268 266 266 265 264 263 262 262 262 262 262 262 262 261 260 259
284 284 284 285 285 285 285 286 285 285 287 288 287 287 288 287 287 288 289 290 290 289 288 288 287 287 287 286 285 285 285 285 283 283 284 284 284 284 284 284 284 285 285 285 285 286 286 286 284 282 281 280 276 274 272 271 274 282 282 272 267 267 268 269 270 271 271 271 271 271 270 269 268 266 265 265 265 264 264 264 265 265 265 264 264 262 260 259